Flag for U.S.A. Weather past 2 weeks in Newport News, Virginia, U.S.A.

48 °F


Feels Like: 43 °F
Forecast: 48 / 52 °F
Wind: 10 mph from Northeast

Location: Newport News / Williamsburg International Airport

Current Time: Nov 30, 2015 at 8:29:55 AM

Latest Report: Nov 30, 2015 at 7:54 AM

Visibility: 2 mi

Pressure: 30.28 "Hg

Humidity: 96%

Dew point: 47 °F

Location of Newport NewsLocation

Historic Weather in Newport News — Graph


Newport News temperature yesterday

Maximum temperature yesterday: 61 °F (at 12:54 PM)
Minimum temperature yesterday: 49 °F (at 10:54 PM)
Average temperature yesterday: 54 °F

Past Weeks' High & Low Weather Summary

High71 °F (Nov 18, 12:54 PM)100% (Nov 19, 10:54 PM)30.76 "Hg (Nov 19, 10:54 PM)
Low26 °F (Nov 24, 3:54 AM)29% (Nov 15, 1:54 PM)29.91 "Hg (Nov 22, 3:54 AM)
Average51 °F77%30.29 "Hg
* Reported Nov 15 7:54 AM — Nov 30 6:54 AM, Newport News, Weather by CustomWeather, © 2015

Note: Actual official high and low records may vary slightly from our data, if they occured in-between our weather recording intervals... More about our weather records


Newport News weather history for previous 24 hours

Time TempWeatherWind HumidityBarometerVisibility
6:54 AM
Mon, Nov 30
47 °FFog.8 mph97%30.27 "Hg3 mi
5:54 AM47 °FLight rain. Fog.8 mph97%30.26 "Hg2 mi
4:54 AM47 °FLight rain. Fog.10 mph97%30.25 "Hg5 mi
3:54 AM46 °FRain. Fog.9 mph96%30.25 "Hg5 mi
2:54 AM46 °FRain. Fog.8 mph96%30.26 "Hg5 mi
1:54 AM47 °FRain. Fog.8 mph93%30.27 "Hg5 mi
12:54 AM48 °FLight rain. Fog.7 mph93%30.24 "Hg3 mi
11:54 PM
Sun, Nov 29
49 °FLight rain. Fog.12 mph97%30.24 "Hg2 mi
10:54 PM49 °FFog.9 mph97%30.22 "Hg3 mi
9:54 PM50 °FFog.6 mph93%30.23 "Hg3 mi
8:54 PM50 °FFog.8 mph96%30.23 "Hg6 mi
7:54 PM50 °FFog.7 mph96%30.20 "Hg4 mi
6:54 PM50 °FLow clouds.8 mph96%30.19 "Hg8 mi
5:54 PM51 °FLight rain. Fog.7 mph96%30.18 "Hg3 mi
4:54 PM51 °FFog.6 mph96%30.17 "Hg4 mi
3:54 PM52 °FFog.10 mph97%30.16 "Hg2 mi
2:54 PM54 °FFog.12 mph97%30.15 "Hg4 mi
1:54 PM58 °FLow clouds.8 mph90%30.14 "Hg7 mi
12:54 PM61 °FOvercast.5 mph83%30.13 "Hg7 mi
11:54 AM59 °FCloudy.5 mph87%30.14 "Hg8 mi
10:54 AM59 °FOvercast.3 mph84%30.18 "Hg8 mi
9:54 AM59 °FMostly cloudy.5 mph84%30.18 "Hg9 mi
8:54 AM58 °FMostly cloudy.6 mph87%30.16 "Hg10 mi
Weather by CustomWeather, © 2015

See weather overviewHow to use our weather pages